Weather History for Montreal Mirabel, QC

Change the Weather History Date:

Thursday, May 9, 2013

  Actual Average Record
Temperature  
Mean Temperature 68 °F -  
Max Temperature 77 °F 61 °F 80 °F (2007)
Min Temperature 60 °F 41 °F 37 °F (1997)
Cooling Degree Days 4    
Growing Degree Days 18 (Base 50)    
Moisture  
Dew Point 56 °F    
Average Humidity 73    
Maximum Humidity 94    
Minimum Humidity 38    
Precipitation  
Precipitation 0.00 in - - ()
Sea Level Pressure  
Sea Level Pressure 29.92 in    
Wind  
Wind Speed 5 mph ()    
Max Wind Speed 12 mph    
Max Gust Speed 18 mph    
Visibility 17.5 miles    
Events      
Averages and records for this station are not official NWS values.
T = Trace of Precipitation, MM = Missing Value Source: Averaged Metar Reports

Daily Weather History Graph

Daily Weather History Graph

Search for Another Location

Airport:

Trip Planner

Search our weather history database for the weather conditions in past years. The results will help you decide how hot, cold, wet, or windy it might be!

Date:

Astronomy

May. 09, 2013 Rise Set
Actual Time 5:32 AM EDT 8:13 PM EDT
Civil Twilight 4:58 AM EDT 8:47 PM EDT
Nautical Twilight 4:15 AM EDT 9:31 PM EDT
Astronomical Twilight 3:25 AM EDT 10:21 PM EDT
Moon 5:16 AM EDT (5/9) 8:06 PM EDT (5/9)
Length of Visible Light 15h 49m
Length of Day
14h 41m
Waning Crescent, 0% of the Moon is Illuminated
May 9
Waning Crescent
May 9
New
May 18
First Quarter
May 25
Full
May 31
Last Quarter

Hourly Weather History & Observations

Time (EDT) Temp. Dew Point Humidity Pressure Visibility Wind Dir Wind Speed Gust Speed Precip Events Conditions
12:00 AM 62.6 °F 55.4 °F 77% 30.01 in 25.0 mi SSE 3.5 mph - N/A   Overcast
1:00 AM 62.6 °F 57.2 °F 82% 30.00 in 25.0 mi SE 5.8 mph - N/A   Overcast
2:00 AM 62.6 °F 57.2 °F 82% 29.98 in 25.0 mi SE 9.2 mph - N/A   Overcast
3:00 AM 60.8 °F 59.0 °F 94% 29.96 in 25.0 mi ESE 6.9 mph - N/A   Overcast
4:00 AM 60.8 °F 59.0 °F 94% 29.96 in 25.0 mi ENE 3.5 mph - N/A   Overcast
5:00 AM 60.8 °F 59.0 °F 94% 29.95 in 25.0 mi NE 3.5 mph - N/A   Overcast
5:52 AM 60.8 °F 59.0 °F 94% 29.95 in 25.0 mi NE 4.6 mph - N/A   Overcast
6:00 AM 60.8 °F 59.0 °F 94% 29.95 in 25.0 mi NNE 4.6 mph - N/A   Overcast
7:00 AM 60.8 °F 59.0 °F 94% 29.95 in 15.0 mi NE 3.5 mph - N/A   Overcast
7:16 AM 60.8 °F 59.0 °F 94% 29.95 in 25.0 mi NE 3.5 mph - N/A   Overcast
8:00 AM 62.6 °F 59.0 °F 88% 29.96 in 15.0 mi East 3.5 mph - N/A   Mostly Cloudy
9:00 AM 64.4 °F 60.8 °F 88% 29.95 in 20.0 mi SSE 2.3 mph - N/A   Mostly Cloudy
10:00 AM 68.0 °F 60.8 °F 78% 29.93 in 20.0 mi Variable 2.3 mph - N/A   Mostly Cloudy
11:00 AM 68.0 °F 57.2 °F 68% 29.93 in 40.0 mi WSW 4.6 mph - N/A   Mostly Cloudy
12:00 PM 71.6 °F 57.2 °F 60% 29.91 in 40.0 mi SW 4.6 mph - N/A   Mostly Cloudy
1:00 PM 73.4 °F 55.4 °F 53% 29.89 in 40.0 mi South 10.4 mph - N/A   Mostly Cloudy
2:00 PM 75.2 °F 53.6 °F 47% 29.87 in 40.0 mi SSW 11.5 mph - N/A   Mostly Cloudy
3:00 PM 77.0 °F 51.8 °F 41% 29.85 in 35.0 mi SSW 10.4 mph - N/A   Mostly Cloudy
4:00 PM 75.2 °F 53.6 °F 47% 29.85 in 35.0 mi WSW 3.5 mph - N/A   Mostly Cloudy
5:00 PM 75.2 °F 48.2 °F 38% 29.84 in 35.0 mi SW 8.1 mph - N/A   Mostly Cloudy
6:00 PM 71.6 °F 55.4 °F 57% 29.85 in 35.0 mi NW 11.5 mph 18.4 mph N/A   Mostly Cloudy
7:00 PM 68.0 °F 53.6 °F 60% 29.86 in 35.0 mi North 6.9 mph - N/A   Mostly Cloudy
8:00 PM 66.2 °F 53.6 °F 64% 29.88 in 25.0 mi North 3.5 mph - N/A   Mostly Cloudy
9:00 PM 66.2 °F 53.6 °F 64% 29.89 in 25.0 mi Calm Calm - N/A   Mostly Cloudy
10:00 PM 62.6 °F 55.4 °F 77% 29.91 in 25.0 mi Calm Calm - N/A   Mostly Cloudy
11:00 PM 64.4 °F 55.4 °F 73% 29.90 in 25.0 mi North 5.8 mph - N/A   Overcast